MPEC 2007-K33 : 2002 LD35

The following Minor Planet Electronic Circular may be linked-to from your own Web pages, but must not otherwise be redistributed electronically.


Read MPEC 2007-K32 Read MPEC 2007-K34


M.P.E.C. 2007-K33                                Issued 2007 May 22, 19:55 UT

     The Minor Planet Electronic Circulars contain information on unusual
         minor planets and routine data on comets.  They are published
   on behalf of Commission 20 of the International Astronomical Union by the
          Minor Planet Center, Smithsonian Astrophysical Observatory,
                          Cambridge, MA 02138, U.S.A.

             Prepared using the Tamkin Foundation Computer Network

                              MPC@CFA.HARVARD.EDU
          URL http://www.cfa.harvard.edu/iau/mpc.html  ISSN 1523-6714

                                   2002 LD35

Additional Observations:
     K02L35D  C2007 05 19.05186 17 17 18.02 -02 53 32.2          18.7 V EK033941
     K02L35D  C2007 05 19.05300 17 17 18.00 -02 53 32.5          18.7 V EK033941
     K02L35D  C2007 05 19.05413 17 17 17.99 -02 53 32.9          18.8 V EK033941
     K02L35D  C2007 05 19.05526 17 17 17.97 -02 53 33.4          18.8 V EK033941
     K02L35D  C2007 05 19.05639 17 17 17.96 -02 53 33.8          18.9 V EK033941
     K02L35D  C2007 05 19.05753 17 17 17.95 -02 53 34.2          18.8 V EK033941
     K02L35D  C2007 05 19.05979 17 17 17.91 -02 53 35.0          19.0 V EK033941
     K02L35D  C2007 05 21.38499 17 16 45.10 -03 09 50.7          18.3 R EK033H45
     K02L35D  C2007 05 21.38774 17 16 45.03 -03 09 52.1          18.5 R EK033H45
     K02L35D  C2007 05 21.38986 17 16 44.99 -03 09 52.8          18.5 R EK033H45
     K02L35D  C2007 05 21.39245 17 16 44.93 -03 09 53.8          18.4 R EK033H45
     K02L35D  C2007 05 21.39357 17 16 44.92 -03 09 54.0          18.4 R EK033H45
     K02L35D  C2007 05 21.39470 17 16 44.89 -03 09 55.0          18.4 R EK033H45
     K02L35D  C2007 05 21.39594 17 16 44.88 -03 09 55.6          18.5 R EK033H45

Observer details:
941 Observatorio Pla D'Arguines.  Observers R. Ferrando, M. Ferrando.
    Measurer R. Ferrando.  0.36-m f/10 Schmidt-Cassegrain + CCD.
H45 Petit Jean Mountain South.  Observer P. C. Sherrod.  0.51-m f/4
    Schmidt-Cassegrain + CCD.

First and last observations above in comparison with prediction:
Residuals in seconds of arc (or two decimals in degrees), reference and Delta-T
070519 941 0.04- 0.01+    070521 H45 0.04- 0.01+    MPO 38337   +0.036 day

Orbital elements:
2002 LD35
Epoch 2007 Apr. 10.0 TT = JDT 2454200.5                 MPC
M 335.88584              (2000.0)            P               Q
n   0.19506164     Peri.  198.79332     +0.44872484     +0.85341979
a   2.9445672      Node    98.61929     -0.78171479     +0.51863468
e   0.5025864      Incl.   15.55776     -0.43309122     -0.05189147
P   5.05           H   17.2           G   0.15           U   1
Residuals in seconds of arc
020609 704  0.3+  0.6-    020612 246  0.1-  0.5-    020717 644  0.2+  0.0
020609 704  0.3+  0.8-    020612 246  0.6+  0.8-    020718 644  0.2+  0.1-
020609 704  0.2+  0.2-    020613 448  1.8-  0.9-    020718 644  0.1+  0.1+
020609 704  0.1+  0.8-    020613 448  1.4-  1.0-    020718 644  0.0   0.1+
020609 704  0.3+  0.3+    020613 448  1.1-  1.0-    020930 422  0.2-  0.2-
020610 704  0.6-  0.4+    020613 448  0.7-  1.3-    020930 422  0.4+  0.4+
020610 704  0.2-  0.2+    020613 704  0.2+  0.9+    070519 941  0.2-  0.2-
020610 704  0.1+  0.4+    020613 704  0.7+  1.4+    070519 941  0.3-  0.1-
020610 704  0.5+  0.9-    020613 704  0.2-  0.6+    070519 941  0.1-  0.1-
020610 704  0.8+  0.2-    020613 704  0.1-  0.7+    070519 941  0.2-  0.1-
020610 704  0.6+  0.4-    020613 704  0.1+  1.0+    070519 941  0.1-  0.1-
020611 649  0.1+  0.1+    020613 704  0.6+  0.8+    070519 941  0.1+  0.0
020611 649  0.3+  0.5+    020613 704  0.1-  0.7+    070519 941  0.0   0.0
020611 649  0.1-  0.6+    020705 704  0.1-  0.1+    070521 H45  0.3+  0.0
020611 854  1.0+  0.2+    020705 704  0.3-  0.1+    070521 H45  0.0   0.2-
020611 854  0.0   0.2-    020705 704  0.4-  0.0     070521 H45  0.1+  0.1+
020612 118  0.3-  0.6+    020705 704  0.5-  0.1-    070521 H45  0.0   0.2+
020612 118  0.4+  0.3+    020705 704  0.2-  0.7-    070521 H45  0.1+  0.5+
020612 118  0.5+  0.2+    020717 644  0.3+  0.0     070521 H45  0.0   0.0
020612 246  0.0   0.1-    020717 644  0.0   0.0     070521 H45  0.3+  0.0

Ephemeris:
2002 LD35                a,e,i = 2.94, 0.50, 16                  q = 1.4647
Date    TT    R. A. (2000) Decl.     Delta      r     Elong.  Phase     V
2007 05 20    17 17.10   -02 59.7    0.718    1.679   152.0    16.5    18.5
2007 05 30    17 13.36   -04 34.1    0.647    1.635   159.3    12.6    18.1
2007 06 09    17 07.19   -07 05.2    0.594    1.595   164.2    10.0    17.7
2007 06 19    16 59.88   -10 35.3    0.559    1.559   162.8    11.1    17.6
2007 06 29    16 53.43   -14 54.2    0.543    1.528   155.8    15.8    17.7
2007 07 09    16 49.87   -19 40.9    0.544    1.503   147.1    21.6    17.8
2007 07 19    16 50.90   -24 30.6    0.562    1.484   138.4    27.1    18.0
2007 07 29    16 57.65   -29 02.4    0.592    1.471   130.6    31.6    18.2
2007 08 08    17 10.40   -33 01.3    0.634    1.465   123.9    35.1    18.5
2007 08 18    17 28.97   -36 18.0    0.685    1.466   118.2    37.5    18.7
2007 08 28    17 52.74   -38 46.6    0.745    1.474   113.4    39.0    19.0
2007 09 07    18 20.59   -40 24.0    0.812    1.489   109.3    39.7    19.2
2007 09 17    18 51.27   -41 09.5    0.887    1.509   105.6    39.9    19.4
2007 09 27    19 23.40   -41 05.0    0.969    1.536   102.3    39.6    19.6
2007 10 07    19 55.66   -40 15.3    1.059    1.569    99.2    39.0    19.9
2007 10 17    20 27.10   -38 46.9    1.157    1.606    96.1    38.1    20.1
2007 10 27    20 57.13   -36 47.5    1.263    1.647    92.9    37.1    20.3
2007 11 06    21 25.43   -34 24.6    1.377    1.692    89.7    35.9    20.5
2007 11 16    21 52.00   -31 45.1    1.498    1.740    86.2    34.5    20.7
2007 11 26    22 16.93   -28 54.9    1.627    1.791    82.6    33.1    20.9
2007 12 06    22 40.38   -25 58.7    1.761    1.844    78.8    31.6    21.1
2007 12 16    23 02.59   -23 00.2    1.901    1.898    74.8    30.0    21.3
2007 12 26    23 23.74   -20 02.3    2.046    1.954    70.6    28.3    21.5
2008 01 05    23 43.98   -17 07.1    2.194    2.011    66.3    26.6    21.6
2008 01 15    00 03.50   -14 16.2    2.343    2.069    61.8    24.8    21.8

Gareth V. Williams           (C) Copyright 2007 MPC           M.P.E.C. 2007-K33

Read MPEC 2007-K32 Read MPEC 2007-K34


Our Web policy. Index to the CBAT/MPC/ICQ pages.

MPC

Valid HTML 4.01!